Location: Asheville, NC
(35.6000°N, 82.5500°W)
Time: 17:31:35
(UTC-04:00)

AAUSAT CUBESAT 2 - Pass Details

Date: 10 January 2018
Orbit: 577 x 591 km, 97.5° (Epoch: 20 July)

Event Time Altitude Azimuth Distance (km) Brightness Sun altitude
Rises 18:55:36 0° 141° (SE) 2,806 ? -15.9°
Enters shadow 18:55:46 - 141° (SE) 2,743 ? -16.0°
Exits shadow 19:06:49 - 4° (N) 2,588 ? -18.1°
Sets 19:07:23 0° 2° (N) 2,812 ? -18.3°
